Hourly Data Report for October 02, 2000

SHERBROOKE A
QUEBEC

45°26'00.000" N
71°41'00.000" W
241.40 m
7028124
71610
YSC

Download Data

Hourly Data (October 2000)
Hourly Data Report for October 2, 2000
TIME
LST
Temp Definition
°C
Dew Point Definition
°C
Rel Hum Definition
%
Precip. Amount Definition
mm

Wind Dir Definition
10's deg

Wind Spd Definition
km/h
Visibility Definition
km
Stn Press Definition
kPa
Hmdx Definition


Wind Chill Definition


Weather Definition


00:00 5.0 4.5 97   11 6 5.6 98.82      
01:00 5.0 4.5 97   9 6 2.6 98.82      
02:00 4.4 4.0 97   7 4 1.1 98.75      
03:00 4.0 3.5 97   10 4 5.6 98.75      
04:00 3.6 3.1 97   9 4 4.8 98.75      
05:00 3.6 3.5 99   10 4 3.9 98.79      
06:00 3.2 2.9 98   7 6 4.0 98.79      
07:00 6.8 6.4 97   8 4 12.9 98.79     Clear
08:00 10.7 9.1 90     0 12.9 98.75     Clear
09:00 15.2 10.4 73     0 24.1 98.72     Clear
10:00 18.3 11.4 64   24 7 24.1 98.65     Clear
11:00 20.3 10.8 54   21 9 24.1 98.52     Mainly Clear
12:00 22.2 9.8 45   19 7 24.1 98.42     Mainly Clear
13:00 21.5 9.6 47   15 19 24.1 98.32     Mainly Clear
14:00 22.2 9.0 43   20 13 24.1 98.22     Mostly Cloudy
15:00 21.9 8.1 41   19 13 24.1 98.16     Mostly Cloudy
16:00 20.5 8.9 47   25 7 24.1 98.12     Mostly Cloudy
17:00 18.8 7.4 47   19 6 15.0 98.09      
18:00 13.5 7.8 68   17 7 15.0 98.09      
19:00 11.9 7.9 76   19 4 15.0 98.06      
20:00 11.0 8.2 83   15 7 15.0 98.06      
21:00 8.2 7.2 93   8 4 15.0 98.02      
22:00 7.2 6.2 93     0 15.0 98.02      
23:00 7.0 6.6 97     0 11.3 97.96      

Notes on Data Quality.

Legend

  • E = Estimated
  • M = Missing
  • NA = Not Available*
  • [empty] = Indicates an unobserved value
Date modified: